Location: Newark
(34.0131°N, 4.3314°W)
Time: 21:17:49
(UTC+00:00)

Explorer 7 - Pass Details

Date: 13 October 2019
Orbit: 485 x 680 km, 50.3° (Epoch: 14 November)

Event Time Altitude Azimuth Distance (km) Brightness Sun altitude
Rises 14:21:41 0° 256° (WSW) 2,537 10.9 36.9°
Reaches altitude 10° 14:24:04 10° 270° (W) 1,665 10.0 36.6°
Maximum altitude 14:27:17 26° 329° (NNW) 992 8.3 36.1°
Drops below altitude 10° 14:30:35 10° 28° (NNE) 1,713 9.0 35.6°
Sets 14:33:05 0° 41° (NE) 2,628 9.8 35.2°
